Location: Cicognara
(44.9500°N, 10.4667°E)
Time: 09:31:55
(UTC+00:00)

DNEPR-1 R/B - Pass Details

Date: 20 June 2021
Orbit: 588 x 1333 km, 64.6° (Epoch: 04 August)

Event Time Altitude Azimuth Distance (km) Brightness Sun altitude
Rises 20:34:08 0° 325° (NW) 2,835 9.1 -11.9°
Reaches altitude 10° 20:36:21 10° 327° (NNW) 1,922 7.6 -12.1°
Maximum altitude 20:40:35 73° 53° (NE) 633 3.6 -12.6°
Enters shadow 20:43:39 20° 136° (SE) 1,475 4.9 -12.9°
